Tracking 19792 objects as of 16-Jul-2019
HD Live streaming from Space Station
objects crossing your sky now

GARUDA 1

Track GARUDA 1 now!
GARUDA 1 is classified as:


NORAD ID: 26089
Int'l Code: 2000-011A
Perigee: 35,882.3 km
Apogee: 35,900.9 km
Inclination: 3.5 °
Period: 1,441.1 minutes
Semi major axis: 42262 km
RCS: 16.0243 m2 (large)
Launch date: February 12, 2000
Source: Indonesia (INDO)
Launch site: TYURATAM MISSILE AND SPACE COMPLEX (TTMTR)

L-band; mobile telephone communications.
aabbcc
Your satellite tracking list
Your tracking list is empty




NASA's NSSDC Master Catalog

Two Line Element Set (TLE):
1 26089U 00011A   19195.83285475 -.00000211  00000-0  00000+0 0  9998
2 26089   3.4603  96.8806 0002200 339.2660 314.3209  0.99923653 71054
Source of the keplerian elements: AFSPC